Le nostre stazioni meteo in Italia

Pubblicità
Il mio iltempo24.it
Passo Dei Giovi, Italia (16119): Temperatura & dewpoint: 15.06.2019 00:00:00 - 21.06.2019 00:00:00 (CEST)Passo Dei Giovi, Italia (16119): velocità del vento: 15.06.2019 00:00:00 - 21.06.2019 00:00:00 (CEST)Passo Dei Giovi, Italia (16119): direzione del vento: 15.06.2019 00:00:00 - 21.06.2019 00:00:00 (CEST)Passo Dei Giovi, Italia (16119): reduced air pressure: 15.06.2019 00:00:00 - 21.06.2019 00:00:00 (CEST)Passo Dei Giovi, Italia (16119): visibility: 15.06.2019 00:00:00 - 21.06.2019 00:00:00 (CEST)
Data & Tempo tt [°C] td [°C] ff [km/h] ff [kn] dd ppp [hPa] vv [km]
21.06.2019 00:00:00 - - - - - - -
20.06.2019 23:00:00 - - - - - - -
20.06.2019 22:00:00 - - - - - - -
20.06.2019 21:00:00 - - - - - - -
20.06.2019 20:00:00 20,4 12,1 15 8 S 1013,0 12
20.06.2019 19:00:00 - - - - - - -
20.06.2019 18:00:00 - - - - - - -
20.06.2019 17:00:00 22,4 12,1 26 14 S 1012,8 12
20.06.2019 16:00:00 23,0 13,0 - - - - 10
20.06.2019 15:00:00 - - - - - - -
20.06.2019 14:00:00 22,6 13,1 22 12 S 1013,0 12
20.06.2019 13:00:00 - - - - - - -
20.06.2019 12:00:00 - - - - - - -
20.06.2019 11:00:00 21,4 14,1 13 7 S 1013,2 12
20.06.2019 10:00:00 - - - - - - -
20.06.2019 09:00:00 - - - - - - -
20.06.2019 08:00:00 17,4 15,7 11 6 S 1014,1 12
20.06.2019 07:00:00 - - - - - - -
20.06.2019 06:00:00 - - - - - - -
20.06.2019 05:00:00 - - - - - - -
20.06.2019 04:00:00 - - - - - - -
20.06.2019 03:00:00 - - - - - - -
20.06.2019 02:00:00 - - - - - - -
20.06.2019 01:00:00 - - - - - - -
20.06.2019 00:00:00 - - - - - - -
19.06.2019 23:00:00 - - - - - - -
19.06.2019 22:00:00 - - - - - - -
19.06.2019 21:00:00 - - - - - - -
19.06.2019 20:00:00 20,6 17,0 16 9 S 1013,0 15
19.06.2019 19:00:00 - - - - - - -
19.06.2019 18:00:00 - - - - - - -
19.06.2019 17:00:00 23,0 12,9 21 11 S 1013,2 15
19.06.2019 16:00:00 - - - - - - -
19.06.2019 15:00:00 - - - - - - -
19.06.2019 14:00:00 24,0 14,1 15 8 S 1013,7 15
19.06.2019 13:00:00 - - - - - - -
19.06.2019 12:00:00 - - - - - - -
19.06.2019 11:00:00 22,8 13,6 11 6 S 1014,0 15
19.06.2019 10:00:00 - - - - - - -
19.06.2019 09:00:00 - - - - - - -
19.06.2019 08:00:00 15,4 13,6 11 6 N 1015,3 15
19.06.2019 07:00:00 - - - - - - -
19.06.2019 06:00:00 - - - - - - -
19.06.2019 05:00:00 - - - - - - -
19.06.2019 04:00:00 - - - - - - -
19.06.2019 03:00:00 - - - - - - -
19.06.2019 02:00:00 - - - - - - -
19.06.2019 01:00:00 - - - - - - -
19.06.2019 00:00:00 - - - - - - -
18.06.2019 23:00:00 - - - - - - -
18.06.2019 22:00:00 - - - - - - -
18.06.2019 21:00:00 - - - - - - -
18.06.2019 20:00:00 22,8 15,9 13 7 S 1014,2 12
18.06.2019 19:00:00 - - - - - - -
18.06.2019 18:00:00 - - - - - - -
18.06.2019 17:00:00 25,4 16,3 11 6 S 1013,9 12
18.06.2019 16:00:00 26,0 14,0 - - - - 10
18.06.2019 15:00:00 - - - - - - -
18.06.2019 14:00:00 25,6 15,6 11 6 S 1014,6 12
18.06.2019 13:00:00 - - - - - - -
18.06.2019 12:00:00 24,0 16,0 - - - - 10
18.06.2019 11:00:00 22,8 14,1 13 7 N 1015,2 12
18.06.2019 10:00:00 - - - - - - -
18.06.2019 09:00:00 19,0 16,0 - - - - 10
18.06.2019 08:00:00 15,6 14,5 16 9 N 1016,3 12
18.06.2019 07:00:00 - - - - - - -
18.06.2019 06:00:00 - - - - - - -
18.06.2019 05:00:00 - - - - - - -
18.06.2019 04:00:00 - - - - - - -
18.06.2019 03:00:00 - - - - - - -
18.06.2019 02:00:00 - - - - - - -
18.06.2019 01:00:00 - - - - - - -
18.06.2019 00:00:00 - - - - - - -
17.06.2019 23:00:00 - - - - - - -
17.06.2019 22:00:00 - - - - - - -
17.06.2019 21:00:00 - - - - - - -
17.06.2019 20:00:00 24,6 12,9 5 3 N 1013,5 15
17.06.2019 19:00:00 26,0 11,0 - - - - 10
17.06.2019 18:00:00 - - - - - - -
17.06.2019 17:00:00 26,2 10,8 15 8 N 1013,7 15
17.06.2019 16:00:00 - - - - - - -
17.06.2019 15:00:00 - - - - - - -
17.06.2019 14:00:00 24,6 11,6 22 12 N 1015,0 15
17.06.2019 13:00:00 24,0 13,0 - - - - 10
17.06.2019 12:00:00 24,0 13,0 - - - - 10
17.06.2019 11:00:00 22,2 14,1 8 4 N 1015,4 15
17.06.2019 10:00:00 - - - - - - -
17.06.2019 09:00:00 - - - - - - -
17.06.2019 08:00:00 13,0 11,4 18 10 N 1016,5 15
17.06.2019 07:00:00 - - - - - - -
17.06.2019 06:00:00 - - - - - - -
17.06.2019 05:00:00 - - - - - - -
17.06.2019 04:00:00 - - - - - - -
17.06.2019 03:00:00 - - - - - - -
17.06.2019 02:00:00 - - - - - - -
17.06.2019 01:00:00 - - - - - - -
17.06.2019 00:00:00 - - - - - - -
16.06.2019 23:00:00 - - - - - - -
16.06.2019 22:00:00 - - - - - - -
16.06.2019 21:00:00 - - - - - - -
16.06.2019 20:00:00 - - - - - - -
16.06.2019 19:00:00 - - - - - - -
16.06.2019 18:00:00 - - - - - - -
16.06.2019 17:00:00 - - - - - - -
16.06.2019 16:00:00 - - - - - - -
16.06.2019 15:00:00 - - - - - - -
16.06.2019 14:00:00 - - - - - - -
16.06.2019 13:00:00 - - - - - - -
16.06.2019 12:00:00 - - - - - - -
16.06.2019 11:00:00 - - - - - - -
16.06.2019 10:00:00 - - - - - - -
16.06.2019 09:00:00 - - - - - - -
16.06.2019 08:00:00 - - - - - - -
16.06.2019 07:00:00 - - - - - - -
16.06.2019 06:00:00 - - - - - - -
16.06.2019 05:00:00 - - - - - - -
16.06.2019 04:00:00 - - - - - - -
16.06.2019 03:00:00 - - - - - - -
16.06.2019 02:00:00 - - - - - - -
16.06.2019 01:00:00 - - - - - - -
16.06.2019 00:00:00 - - - - - - -
15.06.2019 23:00:00 - - - - - - -
15.06.2019 22:00:00 - - - - - - -
15.06.2019 21:00:00 - - - - - - -
15.06.2019 20:00:00 17,4 16,4 21 11 S 1015,0 3,0
15.06.2019 19:00:00 18,0 17,0 - - - - 5
15.06.2019 18:00:00 18,0 17,0 - - - - 5
15.06.2019 17:00:00 18,6 16,9 24 13 S 1015,7 5
15.06.2019 16:00:00 19,0 17,0 - - - - 7
15.06.2019 15:00:00 18,0 17,0 - - - - 7
15.06.2019 14:00:00 18,2 17,2 18 10 S 1016,7 6
15.06.2019 13:00:00 18,0 18,0 - - - - 6
15.06.2019 12:00:00 18,0 17,0 - - - - 0,6
15.06.2019 11:00:00 17,6 17,3 18 10 S 1016,4 0,2
15.06.2019 10:00:00 17,0 17,0 - - - - 0,1
15.06.2019 09:00:00 17,0 17,0 - - - - 0,1
15.06.2019 08:00:00 16,8 16,5 13 7 S 1015,5 0,1
15.06.2019 07:00:00 - - - - - - -
15.06.2019 06:00:00 - - - - - - -
15.06.2019 05:00:00 - - - - - - -
15.06.2019 04:00:00 - - - - - - -
15.06.2019 03:00:00 - - - - - - -
15.06.2019 02:00:00 - - - - - - -
15.06.2019 01:00:00 - - - - - - -
15.06.2019 00:00:00 - - - - - - -

tt = Temperatura
td = dewpoint
ff = velocità del vento
dd = direzione del vento
ppp = reduced air pressure
vv = visibility

Stazioni seguenti

WeatherPro
AMSI
MeteoEarth